SCP
0 0 0 0 0 0 0 0 0 0 0 0 0 0 0 0 0 0 0 0 0 0 0 0 0 0 0 0 0 0 -0 -0 -0 0 0 0 -0 -0
0 0 0 0 0 0 0 0 0 0 0 0 0 0 0 0 0 0 0 0 0 0 0 0 0 0 -0 0 0 -0 -0 -0 -0 0 0 0 -0 -0
0 0 0 0 0 0 0 0 0 0 0 0 0 0 0 0 0 0 0 0 0 0 0 0 0 0 -0 0 0 -0 0 -0 0 0 -0 0 -0 -0
0 0 0 0 0 0 0 0 0 0 0 0 0 0 0 0 0 0 0 0 0 0 0 0 0 0 0 0 0 -0 0 -0 0 0 0 0 -0 -0
0 0 0 0 0 0 0 0 0 0 0 0 0 0 0 0 0 0 0 0 0 0 0 0 0 0 0 0 0 0 -0 0 -0 -0 -0 0 -0 -0
0 0 0 0 0 0 0 0 0 0 0 0 0 0 0 0 0 0 0 0 0 0 0 0 0 0 -0 -0 0 0 -0 0 -0 -0 -0 0 0 0
0 0 0 0 0 0 0 0 0 0 0 0 0 0 0 0 0 0 0 0 0 0 0 0 0 0 -0 -0 0 0 0 -0 0 -0 -0 -0 0 0
0 0 0 0 0 0 0 0 0 0 0 0 0 0 0 0 0 0 0 0 0 0 0 0 0 0 0 -0 -0 -0 0 -0 0 -0 -0 -0 0 0
0 0 0 0 0 0 0 0 0 0 0 0 0 0 0 0 0 0 0 0 0 0 0 0 0 0 0 -0 -0 -0 -0 -0 -0 -0 -0 -0 -0 0
0 0 0 0 0 0 0 0 0 0 0 0 0 0 0 0 0 0 0 0 0 0 0 0 0 0 0 0 0 -0 -0 -0 -0 0 -0 -0 -0 -0
0 0 0 0 0 0 0 0 0 0 0 0 0 0 0 -0 0 0 0 0 0 0 0 0 0 0 0 0 0 0 0 -0 0 -0 0 -0 -0 -0
0 0 0 0 0 0 0 0 0 0 0 0 0 -0 -0 -0 0 0 0 0 0 0 0 0 0 0 0 0 0 0 0 0 0 0 -0 0 -0 0
0 0 0 0 0 0 0 0 0 0 0 0 0 0 0 0 0 0 0 0 0 0 0 0 0 0 0 0 0 0 0 0 0 0 -0 0 -0 -0
0 0 0 0 0 0 0 0 0 0 0 0 0 0 0 0 0 0 0 0 0 -0 0 0 0 0 0 0 0 0 0 0 0 0 0 -0 0 -0
0 0 0 0 0 0 0 0 0 0 0 0 0 0 0 0 0 0 0 0 0 0 0 0 0 0 0 0 0 0 0 0 0 0 0 -0 -0 -0
0 0 0 0 0 0 0 0 0 0 0 0 0 0 0 0 0 0 0 0 0 0 0 0 0 0 -0 0 0 0 0 0 0 0 0 0 -0 -0
0 0 0 0 0 0 0 0 0 0 0 0 0 0 0 0 0 0 0 0 0 0 0 0 0 0 -0 -0 0 0 0 0 0 0 0 0 0 -0
0 0 0 0 0 0 0 0 0 0 0 0 0 0 0 0 0 0 0 0 0 0 0 0 0 0 0 0 -0 0 0 0 0 0 0 0 0 0
0 0 0 0 0 0 0 0 0 0 0 0 0 0 0 0 0 0 0 0 0 0 0 0 0 0 0 0 0 0 0 0 0 0 0 0 0 0
0 0 0 0 0 0 0 0 0 0 0 0 0 0 0 0 0 0 0 0 0 0 0 0 0 0 0 0 0 0 0 0 0 0 0 0 0 0
0 0 0 0 0 0 0 0 0 0 0 0 0 0 0 0 0 0 0 0 0 0 0 0 0 0 0 0 0 0 0 0 0 -0 0 0 0 0
0 0 0 0 0 0 0 0 0 0 0 0 0 0 0 0 0 0 0 0 0 0 0 0 0 0 0 0 0 0 0 0 0 -0 -0 0 0 0
0 0 0 0 0 0 0 0 0 0 0 0 0 0 0 0 0 0 0 0 0 0 0 0 0 0 0 0 0 0 0 0 0 0 0 0 0 0
Wind_Speed_500mb
38 36 25 24 20 13 9 7 10 4 7 12 6 23 40 18 32 25 29 36 35 58 52 58 70 83 97 92 84 81 76 78 82 88 92 87 83 72
30 43 30 22 14 10 9 9 6 12 6 6 9 25 38 35 29 34 32 33 35 57 50 57 63 79 96 94 85 84 77 81 83 88 86 98 92 47
32 44 33 21 12 7 7 13 7 14 6 9 13 17 24 31 27 32 35 29 32 53 44 50 62 85 96 95 88 89 83 82 85 85 83 88 97 67
31 36 28 24 20 13 6 14 7 11 16 12 10 9 16 29 20 27 29 21 32 45 41 45 61 82 89 89 90 89 84 81 80 85 83 79 89 110
35 30 28 21 19 18 15 11 8 12 9 13 9 4 13 21 19 24 25 19 36 44 38 41 55 74 84 83 83 87 88 82 78 80 83 75 77 87
35 29 23 21 19 16 13 14 15 14 11 12 3 8 19 14 16 28 26 32 27 35 35 33 48 56 86 86 80 84 90 94 85 75 80 80 76 74
38 36 30 21 13 16 16 18 23 17 17 9 4 14 13 17 24 31 24 33 22 40 33 30 36 55 73 85 79 81 83 88 90 79 68 76 81 79
46 32 27 20 18 21 15 14 14 20 24 15 11 5 12 18 23 30 30 42 24 42 25 37 41 48 60 77 80 84 78 86 89 88 73 66 75 79
36 29 25 22 19 19 16 15 17 14 13 7 7 11 16 24 26 29 37 18 28 43 21 38 48 36 51 67 76 88 87 80 85 86 80 68 72 74
34 32 23 23 25 21 19 18 17 14 15 13 13 20 23 19 20 23 23 21 28 36 32 39 43 25 50 61 70 77 82 84 85 85 82 76 69 73
42 35 29 23 26 26 23 16 22 22 18 17 22 23 31 28 22 20 22 20 31 35 28 44 36 35 40 54 63 61 75 88 84 87 86 83 79 74
38 34 29 26 35 35 30 16 20 16 17 23 29 27 25 26 30 25 32 30 31 31 30 38 25 41 25 48 55 50 63 72 80 88 91 86 83 85
39 34 27 32 36 37 29 25 20 21 23 20 17 17 16 13 24 36 37 43 49 46 41 39 49 29 33 41 49 50 55 61 70 74 88 93 88 90
37 33 31 33 38 38 35 25 27 29 23 14 8 7 4 10 18 30 35 33 39 46 44 53 44 55 36 42 47 48 50 55 60 59 80 82 96 88
29 26 30 32 36 34 28 34 33 27 21 16 9 7 14 22 18 20 25 28 27 33 38 42 39 46 51 40 40 44 48 52 57 51 68 78 90 96
30 30 30 33 33 35 41 34 28 23 21 18 13 12 13 13 16 16 17 17 20 28 28 34 32 35 52 48 45 39 37 50 49 51 55 70 76 91
34 36 36 35 35 40 30 25 26 29 20 18 15 15 12 12 15 14 16 14 17 15 22 27 30 29 36 55 55 50 52 34 49 46 54 62 67 76
34 37 35 36 38 33 24 25 25 22 20 20 18 16 20 20 14 14 13 14 15 14 14 19 27 31 32 42 62 64 60 64 31 45 48 62 61 64
36 34 36 33 33 33 30 26 28 27 23 19 18 13 15 22 15 15 14 14 17 17 21 13 22 27 31 33 39 54 58 66 73 44 49 55 53 52
35 32 36 39 36 34 30 32 32 27 23 20 20 23 19 14 15 17 16 19 16 14 17 28 29 27 28 26 30 44 48 48 64 70 64 50 58 60
43 37 36 41 37 37 35 30 24 26 23 21 20 21 19 17 8 14 21 21 16 13 14 21 24 25 22 21 29 35 40 40 41 58 60 64 56 60
41 36 40 43 40 38 36 32 34 34 29 24 23 25 21 16 18 17 14 14 15 14 15 18 20 19 24 26 32 27 35 37 35 45 53 49 56 57
41 43 40 42 41 40 38 37 33 30 25 22 20 21 24 22 19 14 16 21 15 14 15 14 16 18 21 21 24 30 25 32 35 36 41 44 41 45
Wind_Direction_500mb
195 177 186 198 192 201 175 168 145 3 65 82 351 330 336 360 335 25 6 358 0 9 4 1 11 9 3 5 9 12 10 8 7 7 12 10 11 354
189 179 192 200 188 192 172 139 135 147 88 59 2 344 344 359 5 25 15 16 8 6 356 359 3 8 6 11 12 16 12 12 9 13 18 21 8 354
186 183 194 175 165 181 157 123 201 162 118 75 7 358 352 348 20 22 28 18 353 359 352 357 8 7 11 13 15 18 16 15 14 15 20 27 26 22
183 188 185 191 183 172 209 192 211 134 127 69 32 4 345 342 28 25 18 21 357 360 354 360 13 6 11 15 18 18 19 15 14 15 20 29 32 28
185 185 182 175 173 169 174 118 95 94 85 98 47 348 321 352 34 41 30 12 8 14 357 355 8 1 12 16 20 20 21 20 17 16 23 30 36 35
180 181 174 183 185 177 177 174 164 111 55 80 113 303 320 7 51 34 39 7 5 25 10 1 360 9 20 22 25 24 22 23 21 17 23 32 38 43
175 180 186 185 178 177 164 173 154 139 157 133 166 288 354 25 51 34 51 24 340 8 41 12 357 8 19 24 22 27 25 26 25 19 21 32 37 37
181 178 181 180 187 186 180 194 190 178 166 163 218 331 21 40 70 55 34 8 21 10 46 20 1 5 17 23 19 20 27 28 29 26 22 29 37 39
182 170 175 173 173 174 168 166 162 155 153 162 102 72 55 63 69 56 35 50 27 24 57 31 3 6 12 22 18 16 19 26 28 29 28 29 40 38
167 161 173 169 155 146 148 148 141 126 104 94 85 76 57 62 66 57 47 63 12 19 43 36 16 356 19 29 20 14 16 19 29 26 31 32 39 43
167 176 186 183 161 144 166 169 137 121 100 87 75 70 48 42 57 79 66 59 33 17 50 33 17 29 32 33 24 14 12 17 24 27 26 32 36 42
175 180 186 182 174 165 168 176 141 122 97 74 62 57 48 21 40 62 56 66 39 34 46 33 21 34 31 15 14 26 14 19 17 26 28 30 31 39
178 180 172 174 177 172 162 171 167 131 102 81 72 80 64 13 41 52 52 54 53 52 45 48 40 31 40 26 21 33 26 19 18 19 23 27 34 34
176 182 178 175 175 173 175 180 153 120 116 125 142 126 146 90 36 39 38 35 43 41 39 41 38 34 40 35 25 28 32 27 24 22 15 22 29 33
184 167 171 173 176 176 177 150 133 129 138 155 150 112 68 87 78 50 35 30 38 32 27 29 30 35 38 42 34 28 29 36 22 23 10 20 26 26
182 173 166 162 160 158 148 142 140 151 160 156 147 117 97 86 91 90 79 73 58 44 35 23 18 26 38 38 40 36 38 36 39 31 21 16 27 27
178 169 161 159 153 152 153 173 170 167 154 144 134 130 126 108 94 87 93 81 80 67 47 28 12 17 26 31 41 40 40 42 48 41 22 26 23 27
181 168 161 157 158 152 168 145 147 161 161 155 149 159 153 125 107 97 86 90 83 63 83 60 32 27 36 32 37 42 43 39 38 45 30 30 29 25
182 169 159 162 170 167 174 178 159 166 156 158 153 138 117 120 120 120 104 90 76 61 40 82 84 61 45 40 35 36 36 41 40 54 45 29 35 31
156 173 173 172 182 173 176 177 188 173 160 159 154 152 144 149 148 131 136 108 93 82 59 60 76 64 57 43 42 37 32 35 42 40 47 46 43 44
166 184 182 177 178 179 182 194 171 155 170 163 156 147 141 138 124 82 101 113 105 88 68 65 59 56 73 43 52 36 30 29 42 39 36 39 38 40
171 180 185 188 183 183 182 179 176 178 171 167 164 156 145 150 149 130 122 120 108 89 78 63 70 68 48 52 38 51 32 26 31 38 33 34 37 33
181 184 189 184 186 187 185 190 196 179 161 172 164 157 155 156 147 140 156 137 111 108 105 82 68 68 70 53 47 34 50 34 37 39 34 31 39 37
Wind_Speed_850mb
38 36 25 24 20 13 9 7 10 4 7 12 6 23 40 18 32 25 29 36 35 58 52 58 70 83 97 92 84 81 76 78 82 88 92 87 83 72
30 43 30 22 14 10 9 9 6 12 6 6 9 25 38 35 29 34 32 33 35 57 50 57 63 79 96 94 85 84 77 81 83 88 86 98 92 47
32 44 33 21 12 7 7 13 7 14 6 9 13 17 24 31 27 32 35 29 32 53 44 50 62 85 96 95 88 89 83 82 85 85 83 88 97 67
31 36 28 24 20 13 6 14 7 11 16 12 10 9 16 29 20 27 29 21 32 45 41 45 61 82 89 89 90 89 84 81 80 85 83 79 89 110
35 30 28 21 19 18 15 11 8 12 9 13 9 4 13 21 19 24 25 19 36 44 38 41 55 74 84 83 83 87 88 82 78 80 83 75 77 87
35 29 23 21 19 16 13 14 15 14 11 12 3 8 19 14 16 28 26 32 27 35 35 33 48 56 86 86 80 84 90 94 85 75 80 80 76 74
38 36 30 21 13 16 16 18 23 17 17 9 4 14 13 17 24 31 24 33 22 40 33 30 36 55 73 85 79 81 83 88 90 79 68 76 81 79
46 32 27 20 18 21 15 14 14 20 24 15 11 5 12 18 23 30 30 42 24 42 25 37 41 48 60 77 80 84 78 86 89 88 73 66 75 79
36 29 25 22 19 19 16 15 17 14 13 7 7 11 16 24 26 29 37 18 28 43 21 38 48 36 51 67 76 88 87 80 85 86 80 68 72 74
34 32 23 23 25 21 19 18 17 14 15 13 13 20 23 19 20 23 23 21 28 36 32 39 43 25 50 61 70 77 82 84 85 85 82 76 69 73
42 35 29 23 26 26 23 16 22 22 18 17 22 23 31 28 22 20 22 20 31 35 28 44 36 35 40 54 63 61 75 88 84 87 86 83 79 74
38 34 29 26 35 35 30 16 20 16 17 23 29 27 25 26 30 25 32 30 31 31 30 38 25 41 25 48 55 50 63 72 80 88 91 86 83 85
39 34 27 32 36 37 29 25 20 21 23 20 17 17 16 13 24 36 37 43 49 46 41 39 49 29 33 41 49 50 55 61 70 74 88 93 88 90
37 33 31 33 38 38 35 25 27 29 23 14 8 7 4 10 18 30 35 33 39 46 44 53 44 55 36 42 47 48 50 55 60 59 80 82 96 88
29 26 30 32 36 34 28 34 33 27 21 16 9 7 14 22 18 20 25 28 27 33 38 42 39 46 51 40 40 44 48 52 57 51 68 78 90 96
30 30 30 33 33 35 41 34 28 23 21 18 13 12 13 13 16 16 17 17 20 28 28 34 32 35 52 48 45 39 37 50 49 51 55 70 76 91
34 36 36 35 35 40 30 25 26 29 20 18 15 15 12 12 15 14 16 14 17 15 22 27 30 29 36 55 55 50 52 34 49 46 54 62 67 76
34 37 35 36 38 33 24 25 25 22 20 20 18 16 20 20 14 14 13 14 15 14 14 19 27 31 32 42 62 64 60 64 31 45 48 62 61 64
36 34 36 33 33 33 30 26 28 27 23 19 18 13 15 22 15 15 14 14 17 17 21 13 22 27 31 33 39 54 58 66 73 44 49 55 53 52
35 32 36 39 36 34 30 32 32 27 23 20 20 23 19 14 15 17 16 19 16 14 17 28 29 27 28 26 30 44 48 48 64 70 64 50 58 60
43 37 36 41 37 37 35 30 24 26 23 21 20 21 19 17 8 14 21 21 16 13 14 21 24 25 22 21 29 35 40 40 41 58 60 64 56 60
41 36 40 43 40 38 36 32 34 34 29 24 23 25 21 16 18 17 14 14 15 14 15 18 20 19 24 26 32 27 35 37 35 45 53 49 56 57
41 43 40 42 41 40 38 37 33 30 25 22 20 21 24 22 19 14 16 21 15 14 15 14 16 18 21 21 24 30 25 32 35 36 41 44 41 45
Wind_Direction_850mb
195 177 186 198 192 201 175 168 145 3 65 82 351 330 336 360 335 25 6 358 0 9 4 1 11 9 3 5 9 12 10 8 7 7 12 10 11 354
189 179 192 200 188 192 172 139 135 147 88 59 2 344 344 359 5 25 15 16 8 6 356 359 3 8 6 11 12 16 12 12 9 13 18 21 8 354
186 183 194 175 165 181 157 123 201 162 118 75 7 358 352 348 20 22 28 18 353 359 352 357 8 7 11 13 15 18 16 15 14 15 20 27 26 22
183 188 185 191 183 172 209 192 211 134 127 69 32 4 345 342 28 25 18 21 357 360 354 360 13 6 11 15 18 18 19 15 14 15 20 29 32 28
185 185 182 175 173 169 174 118 95 94 85 98 47 348 321 352 34 41 30 12 8 14 357 355 8 1 12 16 20 20 21 20 17 16 23 30 36 35
180 181 174 183 185 177 177 174 164 111 55 80 113 303 320 7 51 34 39 7 5 25 10 1 360 9 20 22 25 24 22 23 21 17 23 32 38 43
175 180 186 185 178 177 164 173 154 139 157 133 166 288 354 25 51 34 51 24 340 8 41 12 357 8 19 24 22 27 25 26 25 19 21 32 37 37
181 178 181 180 187 186 180 194 190 178 166 163 218 331 21 40 70 55 34 8 21 10 46 20 1 5 17 23 19 20 27 28 29 26 22 29 37 39
182 170 175 173 173 174 168 166 162 155 153 162 102 72 55 63 69 56 35 50 27 24 57 31 3 6 12 22 18 16 19 26 28 29 28 29 40 38
167 161 173 169 155 146 148 148 141 126 104 94 85 76 57 62 66 57 47 63 12 19 43 36 16 356 19 29 20 14 16 19 29 26 31 32 39 43
167 176 186 183 161 144 166 169 137 121 100 87 75 70 48 42 57 79 66 59 33 17 50 33 17 29 32 33 24 14 12 17 24 27 26 32 36 42
175 180 186 182 174 165 168 176 141 122 97 74 62 57 48 21 40 62 56 66 39 34 46 33 21 34 31 15 14 26 14 19 17 26 28 30 31 39
178 180 172 174 177 172 162 171 167 131 102 81 72 80 64 13 41 52 52 54 53 52 45 48 40 31 40 26 21 33 26 19 18 19 23 27 34 34
176 182 178 175 175 173 175 180 153 120 116 125 142 126 146 90 36 39 38 35 43 41 39 41 38 34 40 35 25 28 32 27 24 22 15 22 29 33
184 167 171 173 176 176 177 150 133 129 138 155 150 112 68 87 78 50 35 30 38 32 27 29 30 35 38 42 34 28 29 36 22 23 10 20 26 26
182 173 166 162 160 158 148 142 140 151 160 156 147 117 97 86 91 90 79 73 58 44 35 23 18 26 38 38 40 36 38 36 39 31 21 16 27 27
178 169 161 159 153 152 153 173 170 167 154 144 134 130 126 108 94 87 93 81 80 67 47 28 12 17 26 31 41 40 40 42 48 41 22 26 23 27
181 168 161 157 158 152 168 145 147 161 161 155 149 159 153 125 107 97 86 90 83 63 83 60 32 27 36 32 37 42 43 39 38 45 30 30 29 25
182 169 159 162 170 167 174 178 159 166 156 158 153 138 117 120 120 120 104 90 76 61 40 82 84 61 45 40 35 36 36 41 40 54 45 29 35 31
156 173 173 172 182 173 176 177 188 173 160 159 154 152 144 149 148 131 136 108 93 82 59 60 76 64 57 43 42 37 32 35 42 40 47 46 43 44
166 184 182 177 178 179 182 194 171 155 170 163 156 147 141 138 124 82 101 113 105 88 68 65 59 56 73 43 52 36 30 29 42 39 36 39 38 40
171 180 185 188 183 183 182 179 176 178 171 167 164 156 145 150 149 130 122 120 108 89 78 63 70 68 48 52 38 51 32 26 31 38 33 34 37 33
181 184 189 184 186 187 185 190 196 179 161 172 164 157 155 156 147 140 156 137 111 108 105 82 68 68 70 53 47 34 50 34 37 39 34 31 39 37